When you browse on this site, cookies collect data to enhance your experience and personalize the content and advertising you see.
Visit our Privacy Policy to learn more. By continuing to use the site, you agree to this use of cookies and data.
  • în România
  • Lista ţărilor
  • Pe 7 zile
  • Temperatura apei
  • Hartă satelitară
  • Meteo pe hartă
  • Widget-uri
  • user-avatar
    Intrare

    Meteo pe oră la Camarillo

    Astăzi, 22 Mai, Miercuri

    Timp Temperatura Precipitaţii Vânt Presiune Umiditate
    00:00 +15°C° 0 mm 5 m/s 753 mmHg 62%
    01:00 +15°C° 0 mm 5 m/s 753 mmHg 61%
    02:00 +15°C° 0 mm 5 m/s 752 mmHg 61%
    03:00 +14°C° 0 mm 5 m/s 752 mmHg 61%
    04:00 +14°C° 0 mm 5 m/s 752 mmHg 61%
    05:00 +15°C° 0 mm 6 m/s 752 mmHg 57%
    06:00 +15°C° 0 mm 6 m/s 752 mmHg 53%
    07:00 +16°C° 0 mm 6 m/s 752 mmHg 49%
    08:00 +17°C° 0 mm 6 m/s 752 mmHg 45%
    09:00 +19°C° 0 mm 5 m/s 752 mmHg 40%
    10:00 +21°C° 0 mm 5 m/s 752 mmHg 36%
    11:00 +21°C° 0 mm 5 m/s 752 mmHg 35%
    12:00 +21°C° 0 mm 6 m/s 751 mmHg 33%
    13:00 +22°C° 0 mm 6 m/s 751 mmHg 32%
    14:00 +22°C° 0 mm 5 m/s 751 mmHg 32%
    15:00 +22°C° 0 mm 5 m/s 751 mmHg 32%
    16:00 +23°C° 0 mm 5 m/s 751 mmHg 31%
    17:00 +21°C° 0 mm 5 m/s 751 mmHg 36%
    18:00 +20°C° 0 mm 5 m/s 751 mmHg 41%
    19:00 +19°C° 0 mm 5 m/s 751 mmHg 46%
    20:00 +17°C° 0 mm 5 m/s 751 mmHg 51%
    21:00 +18°C° 0 mm 4 m/s 752 mmHg 55%
    22:00 +17°C° 0 mm 4 m/s 752 mmHg 60%
    23:00 +17°C° 0 mm 3 m/s 752 mmHg 61%

    Mâine, 23 Mai, Joi

    Timp Temperatura Precipitaţii Vânt Presiune Umiditate
    00:00 +16°C° 0 mm 3 m/s 752 mmHg 63%
    01:00 +16°C° 0 mm 3 m/s 752 mmHg 65%
    02:00 +16°C° 0 mm 2 m/s 752 mmHg 64%
    03:00 +16°C° 0 mm 2 m/s 752 mmHg 64%
    04:00 +16°C° 0 mm 1 m/s 753 mmHg 64%
    05:00 +16°C° 0 mm 2 m/s 753 mmHg 64%
    06:00 +17°C° 0 mm 2 m/s 753 mmHg 64%
    07:00 +18°C° 0 mm 2 m/s 754 mmHg 64%
    08:00 +18°C° 0 mm 2 m/s 754 mmHg 64%
    09:00 +19°C° 0 mm 3 m/s 755 mmHg 63%
    10:00 +20°C° 0 mm 3 m/s 755 mmHg 63%
    11:00 +20°C° 0 mm 3 m/s 755 mmHg 65%
    12:00 +20°C° 0 mm 3 m/s 755 mmHg 67%
    13:00 +20°C° 0 mm 3 m/s 756 mmHg 68%
    14:00 +19°C° 0.1 mm 3 m/s 756 mmHg 72%
    15:00 +18°C° 0.1 mm 3 m/s 756 mmHg 76%
    16:00 +17°C° 0.1 mm 3 m/s 756 mmHg 79%
    17:00 +17°C° 0.1 mm 2 m/s 756 mmHg 80%
    18:00 +17°C° 0.1 mm 2 m/s 756 mmHg 81%
    19:00 +17°C° 0.1 mm 2 m/s 757 mmHg 82%
    20:00 +18°C° 0 mm 1 m/s 757 mmHg 82%
    21:00 +16°C° 0 mm 1 m/s 757 mmHg 82%
    22:00 +16°C° 0 mm 1 m/s 758 mmHg 82%
    23:00 +16°C° 0 mm 1 m/s 758 mmHg 83%

    Poimâine, 24 Mai, Vineri

    Timp Temperatura Precipitaţii Vânt Presiune Umiditate
    00:00 +15°C° 0 mm 1 m/s 757 mmHg 84%
    01:00 +15°C° 0 mm 1 m/s 757 mmHg 85%
    02:00 +15°C° 0 mm 1 m/s 757 mmHg 85%
    03:00 +15°C° 0 mm 1 m/s 757 mmHg 85%
    04:00 +14°C° 0 mm 1 m/s 757 mmHg 85%
    05:00 +16°C° 0 mm 1 m/s 757 mmHg 79%
    06:00 +18°C° 0 mm 1 m/s 757 mmHg 72%
    07:00 +19°C° 0 mm 1 m/s 757 mmHg 66%
    08:00 +21°C° 0 mm 1 m/s 757 mmHg 61%
    09:00 +21°C° 0 mm 2 m/s 757 mmHg 56%
    10:00 +24°C° 0 mm 3 m/s 757 mmHg 50%
    11:00 +24°C° 0 mm 3 m/s 757 mmHg 50%
    12:00 +25°C° 0 mm 4 m/s 756 mmHg 49%
    13:00 +25°C° 0 mm 4 m/s 756 mmHg 48%
    14:00 +25°C° 0 mm 4 m/s 756 mmHg 49%
    15:00 +25°C° 0 mm 4 m/s 755 mmHg 50%
    16:00 +25°C° 0 mm 4 m/s 755 mmHg 51%
    17:00 +22°C° 0 mm 4 m/s 755 mmHg 57%
    18:00 +21°C° 0 mm 3 m/s 755 mmHg 63%
    19:00 +20°C° 0 mm 2 m/s 755 mmHg 69%
    20:00 +19°C° 0 mm 2 m/s 755 mmHg 71%
    21:00 +19°C° 0 mm 1 m/s 755 mmHg 73%
    22:00 +19°C° 0 mm 1 m/s 756 mmHg 75%
    23:00 +18°C° 0 mm 1 m/s 755 mmHg 77%

    25 Mai, Sâmbătă

    Timp Temperatura Precipitaţii Vânt Presiune Umiditate
    00:00 +16°C° 0 mm 0 m/s 755 mmHg 78%
    01:00 +15°C° 0 mm 0 m/s 755 mmHg 79%
    02:00 +16°C° 0 mm 1 m/s 754 mmHg 80%
    03:00 +16°C° 0 mm 1 m/s 754 mmHg 81%
    04:00 +15°C° 0 mm 1 m/s 754 mmHg 81%
    05:00 +18°C° 0 mm 1 m/s 754 mmHg 77%
    06:00 +19°C° 0 mm 1 m/s 754 mmHg 73%
    07:00 +20°C° 0 mm 1 m/s 755 mmHg 68%
    08:00 +20°C° 0 mm 2 m/s 755 mmHg 63%
    09:00 +21°C° 0 mm 2 m/s 755 mmHg 57%
    10:00 +22°C° 0 mm 3 m/s 755 mmHg 51%
    11:00 +22°C° 0 mm 3 m/s 755 mmHg 52%
    12:00 +22°C° 0 mm 4 m/s 755 mmHg 52%
    13:00 +23°C° 0 mm 4 m/s 754 mmHg 52%
    14:00 +22°C° 0 mm 4 m/s 754 mmHg 56%
    15:00 +21°C° 0 mm 4 m/s 754 mmHg 60%
    16:00 +20°C° 0 mm 4 m/s 754 mmHg 65%
    17:00 +19°C° 0 mm 3 m/s 754 mmHg 69%
    18:00 +18°C° 0 mm 3 m/s 754 mmHg 73%
    19:00 +17°C° 0 mm 2 m/s 754 mmHg 78%
    20:00 +17°C° 0 mm 2 m/s 755 mmHg 79%
    21:00 +16°C° 0 mm 1 m/s 755 mmHg 81%
    22:00 +16°C° 0 mm 1 m/s 755 mmHg 82%
    23:00 +16°C° 0.1 mm 1 m/s 755 mmHg 82%

    26 Mai, Duminică

    Timp Temperatura Precipitaţii Vânt Presiune Umiditate
    00:00 +16°C° 0.1 mm 1 m/s 755 mmHg 81%
    01:00 +15°C° 0.1 mm 1 m/s 755 mmHg 81%
    02:00 +15°C° 0.1 mm 1 m/s 755 mmHg 81%
    03:00 +15°C° 0.1 mm 1 m/s 755 mmHg 80%
    04:00 +15°C° 0.1 mm 1 m/s 755 mmHg 80%
    05:00 +15°C° 0.1 mm 1 m/s 755 mmHg 78%
    06:00 +16°C° 0.1 mm 1 m/s 755 mmHg 75%
    07:00 +16°C° 0.1 mm 2 m/s 756 mmHg 72%
    08:00 +16°C° 0.1 mm 2 m/s 756 mmHg 71%
    09:00 +17°C° 0.1 mm 2 m/s 756 mmHg 70%
    10:00 +17°C° 0.1 mm 2 m/s 756 mmHg 69%
    11:00 +17°C° 0.3 mm 2 m/s 756 mmHg 70%
    12:00 +17°C° 0.3 mm 2 m/s 756 mmHg 71%
    13:00 +17°C° 0.3 mm 2 m/s 756 mmHg 72%
    14:00 +17°C° 0.3 mm 2 m/s 756 mmHg 70%
    15:00 +18°C° 0.3 mm 2 m/s 756 mmHg 69%
    16:00 +18°C° 0.3 mm 2 m/s 756 mmHg 67%
    17:00 +17°C° 0.1 mm 2 m/s 756 mmHg 70%
    18:00 +17°C° 0.1 mm 2 m/s 756 mmHg 72%
    19:00 +16°C° 0.1 mm 2 m/s 756 mmHg 74%
    20:00 +16°C° 0 mm 2 m/s 757 mmHg 76%
    21:00 +15°C° 0 mm 2 m/s 757 mmHg 79%
    22:00 +15°C° 0 mm 2 m/s 757 mmHg 81%
    23:00 +14°C° 0 mm 2 m/s 757 mmHg 82%

    27 Mai, Luni

    Timp Temperatura Precipitaţii Vânt Presiune Umiditate
    00:00 +14°C° 0 mm 2 m/s 757 mmHg 84%
    01:00 +14°C° 0 mm 1 m/s 757 mmHg 85%
    02:00 +14°C° 0 mm 1 m/s 757 mmHg 85%
    03:00 +13°C° 0 mm 1 m/s 758 mmHg 85%
    04:00 +13°C° 0 mm 1 m/s 758 mmHg 85%
    05:00 +14°C° 0 mm 1 m/s 758 mmHg 80%
    06:00 +15°C° 0 mm 1 m/s 758 mmHg 75%
    07:00 +18°C° 0 mm 1 m/s 759 mmHg 70%
    08:00 +18°C° 0 mm 2 m/s 759 mmHg 64%
    09:00 +20°C° 0 mm 2 m/s 759 mmHg 58%
    10:00 +21°C° 0 mm 3 m/s 759 mmHg 52%
    11:00 +22°C° 0 mm 3 m/s 759 mmHg 51%
    12:00 +23°C° 0 mm 4 m/s 759 mmHg 49%
    13:00 +23°C° 0 mm 4 m/s 759 mmHg 47%
    14:00 +23°C° 0 mm 4 m/s 758 mmHg 48%
    15:00 +23°C° 0 mm 4 m/s 758 mmHg 49%
    16:00 +23°C° 0 mm 4 m/s 758 mmHg 50%
    17:00 +21°C° 0 mm 4 m/s 758 mmHg 56%
    18:00 +20°C° 0 mm 3 m/s 758 mmHg 62%
    19:00 +19°C° 0 mm 3 m/s 758 mmHg 67%
    20:00 +19°C° 0 mm 2 m/s 758 mmHg 68%
    21:00 +19°C° 0 mm 2 m/s 759 mmHg 69%
    22:00 +19°C° 0 mm 1 m/s 759 mmHg 69%
    23:00 +19°C° 0 mm 1 m/s 758 mmHg 70%
    Arată mai mult